Weather History for KUKI - February, 2014

Change the Weather History Date:

Thursday, February 6, 2014

  Actual Average Record
Temperature  
Mean Temperature 46 °F 49 °F  
Max Temperature 50 °F 59 °F 76 °F (2011)
Min Temperature 42 °F 38 °F 18 °F (1989)
Degree Days  
Heating Degree Days 19 16  
Month to date heating degree days 137 101  
Since 1 July heating degree days 1762 1901  
Cooling Degree Days 0 0  
Month to date cooling degree days 0 0  
Year to date cooling degree days 0 0  
Moisture  
Dew Point 42 °F    
Average Humidity 87    
Maximum Humidity 93    
Minimum Humidity 80    
Precipitation  
Precipitation 0.27 in 0.23 in 3.25 in (2015)
Month to date precipitation 0.84 1.17  
Year to date precipitation 1.41 8.18  
Since 1 July precipitation 3.33  
Snow  
Snow 0.00 in - - ()
Month to date snowfall 0.0  
Since 1 July snowfall 0.0  
Snow Depth 0.00 in    
Sea Level Pressure  
Sea Level Pressure 29.96 in    
Wind  
Wind Speed 3 mph (SSE)    
Max Wind Speed 13 mph    
Max Gust Speed 19 mph    
Visibility 8 miles    
Events Rain    
T = Trace of Precipitation, MM = Missing Value Source: NWS Daily Summary

Daily Weather History Graph

Daily Weather History Graph

Search for Another Location

Airport or City:

Trip Planner

Search our weather history database for the weather conditions in past years. The results will help you decide how hot, cold, wet, or windy it might be!

Date:

Astronomy

Feb. 06, 2014 Rise Set
Actual Time 7:14 AM PST 5:39 PM PST
Civil Twilight 6:46 AM PST 6:07 PM PST
Nautical Twilight 6:14 AM PST 6:39 PM PST
Astronomical Twilight 5:43 AM PST 7:10 PM PST
Moon 11:15 AM PST (2/6) 12:35 AM PST (2/6)
Length of Visible Light 11h 21m
Length of Day
10h 25m
Waxing Crescent, 50% of the Moon is Illuminated
Feb 6
Waxing Crescent
Feb 14
Full
Feb 22
Last Quarter
Mar 1
New
Mar 8
First Quarter

Hourly Weather History & Observations

Time (PST) Temp. Windchill Dew Point Humidity Pressure Visibility Wind Dir Wind Speed Gust Speed Precip Events Conditions
12:05 AM 42.1 °F - 39.9 °F 92% 30.05 in 5.0 mi Calm Calm - 0.01 in Rain Light Rain
12:43 AM 42.1 °F - 39.9 °F 92% 30.03 in 5.0 mi Calm Calm - 0.05 in Rain Light Rain
12:56 AM 42.1 °F 40.2 °F 39.9 °F 92% 30.02 in 5.0 mi NW 3.5 mph - 0.06 in Rain Light Rain
1:16 AM 42.1 °F 40.2 °F 39.9 °F 92% 30.02 in 7.0 mi WNW 3.5 mph - 0.02 in Rain Light Rain
1:24 AM 42.1 °F 40.2 °F 39.9 °F 92% 30.02 in 7.0 mi North 3.5 mph - 0.03 in Rain Light Rain
1:56 AM 42.1 °F - 39.9 °F 92% 30.01 in 6.0 mi Calm Calm - 0.07 in Rain Light Rain
2:04 AM 42.1 °F - 39.9 °F 92% 30.01 in 6.0 mi Calm Calm - 0.00 in Rain Light Rain
2:14 AM 42.1 °F - 39.9 °F 92% 30.00 in 7.0 mi Calm Calm - 0.01 in Rain Light Rain
2:35 AM 42.1 °F - 39.9 °F 92% 29.99 in 7.0 mi Calm Calm - 0.01 in Rain Light Rain
2:56 AM 42.1 °F - 39.9 °F 92% 29.98 in 5.0 mi Calm Calm - 0.03 in Rain Light Rain
3:56 AM 42.1 °F 40.2 °F 39.9 °F 92% 29.95 in 5.0 mi NNW 3.5 mph - 0.05 in Rain Light Rain
4:56 AM 43.0 °F 39.5 °F 37.9 °F 82% 29.94 in 8.0 mi East 5.8 mph - 0.00 in Rain Light Rain
5:56 AM 43.0 °F 40.3 °F 37.9 °F 82% 29.94 in 8.0 mi ESE 4.6 mph - 0.00 in   Overcast
6:56 AM 42.1 °F 40.2 °F 39.0 °F 89% 29.94 in 7.0 mi West 3.5 mph - 0.01 in Rain Light Rain
7:56 AM 43.0 °F - 39.0 °F 86% 29.93 in 10.0 mi Calm Calm - 0.00 in   Overcast
8:11 AM 44.1 °F 40.1 °F 37.0 °F 76% 29.93 in 10.0 mi ESE 6.9 mph - N/A   Overcast
8:21 AM 44.1 °F 39.5 °F 37.0 °F 76% 29.94 in 10.0 mi ENE 8.1 mph - N/A   Overcast
8:56 AM 43.0 °F 41.3 °F 39.9 °F 89% 29.96 in 7.0 mi NNE 3.5 mph - 0.00 in Rain Light Rain
9:43 AM 43.0 °F - 39.9 °F 89% 29.97 in 3.0 mi Calm Calm - 0.01 in Rain Light Rain
9:56 AM 44.1 °F - 39.9 °F 85% 29.97 in 4.0 mi Calm Calm - 0.01 in Rain Light Rain
10:38 AM 44.1 °F - 41.0 °F 89% 29.97 in 2.0 mi Calm Calm - 0.01 in Rain Light Rain
10:54 AM 44.6 °F - 41.0 °F 87% 29.98 in 2.0 mi Calm Calm - 0.02 in Rain Light Rain
10:56 AM 44.1 °F - 41.0 °F 89% 29.98 in 2.5 mi Calm Calm - 0.02 in Rain Light Rain
11:04 AM 45.0 °F 43.5 °F 42.1 °F 90% 29.98 in 4.0 mi North 3.5 mph - 0.00 in Rain Light Rain
11:09 AM 45.0 °F - 42.1 °F 90% 29.97 in 6.0 mi Calm Calm - 0.00 in   Overcast
11:49 AM 46.9 °F - 43.0 °F 86% 29.95 in 10.0 mi Calm Calm - 0.00 in   Overcast
11:56 AM 46.9 °F - 43.0 °F 86% 29.95 in 10.0 mi Variable 3.5 mph - 0.00 in   Overcast
12:03 PM 46.9 °F - 42.1 °F 83% 29.95 in 10.0 mi Calm Calm - N/A   Overcast
12:18 PM 48.0 °F - 42.1 °F 80% 29.94 in 10.0 mi ESE 3.5 mph - N/A   Overcast
12:28 PM 48.0 °F - 43.0 °F 83% 29.94 in 10.0 mi ESE 4.6 mph - N/A   Overcast
12:56 PM 48.9 °F - 43.0 °F 80% 29.92 in 10.0 mi Variable 5.8 mph - N/A   Overcast
1:56 PM 48.9 °F - 42.1 °F 77% 29.92 in 10.0 mi Variable 3.5 mph - N/A   Overcast
2:56 PM 48.9 °F - 44.1 °F 83% 29.91 in 10.0 mi SW 3.5 mph - 0.00 in Rain Light Rain
3:56 PM 48.0 °F - 44.1 °F 86% 29.91 in 5.0 mi South 5.8 mph - 0.00 in Rain Light Rain
4:36 PM 48.0 °F - 45.0 °F 89% 29.92 in 10.0 mi Calm Calm - 0.01 in   Overcast
4:56 PM 48.0 °F - 45.0 °F 89% 29.91 in 6.0 mi South 4.6 mph - 0.01 in Rain Light Rain
5:11 PM 48.0 °F - 45.0 °F 89% 29.91 in 8.0 mi SSE 5.8 mph - 0.00 in Rain Light Rain
5:37 PM 48.0 °F - 45.0 °F 89% 29.91 in 10.0 mi South 6.9 mph - 0.00 in   Overcast
5:56 PM 46.9 °F - 45.0 °F 93% 29.92 in 3.0 mi South 8.1 mph - 0.00 in Rain Light Rain
6:22 PM 46.9 °F - 45.0 °F 93% 29.93 in 10.0 mi SSE 4.6 mph - 0.01 in   Overcast
6:29 PM 46.9 °F - 45.0 °F 93% 29.93 in 9.0 mi SSE 4.6 mph - 0.01 in   Overcast
6:56 PM 46.9 °F - 45.0 °F 93% 29.93 in 9.0 mi SSE 4.6 mph - 0.01 in   Overcast
6:59 PM 46.9 °F - 45.0 °F 93% 29.93 in 9.0 mi Variable 3.5 mph - N/A   Overcast
7:19 PM 46.9 °F - 45.0 °F 93% 29.93 in 10.0 mi South 3.5 mph - N/A   Overcast
7:56 PM 46.9 °F - 45.0 °F 93% 29.95 in 10.0 mi Calm Calm - N/A   Overcast
8:17 PM 46.9 °F - 45.0 °F 93% 29.95 in 8.0 mi South 3.5 mph - 0.00 in Rain Light Rain
8:28 PM 46.9 °F - 45.0 °F 93% 29.94 in 8.0 mi South 3.5 mph - 0.00 in Rain Light Rain
8:41 PM 46.9 °F - 45.0 °F 93% 29.95 in 10.0 mi Calm Calm - 0.00 in   Mostly Cloudy
8:56 PM 46.9 °F - 45.0 °F 93% 29.94 in 10.0 mi Calm Calm - 0.00 in   Overcast
9:22 PM 48.0 °F - 45.0 °F 89% 29.95 in 8.0 mi Calm Calm - N/A   Overcast
9:39 PM 46.9 °F - 44.1 °F 90% 29.96 in 10.0 mi Calm Calm - N/A   Overcast
9:56 PM 46.9 °F - 44.1 °F 90% 29.95 in 9.0 mi Calm Calm - N/A   Overcast
10:05 PM 46.9 °F - 45.0 °F 93% 29.96 in 8.0 mi Calm Calm - N/A   Overcast
10:56 PM 46.9 °F - 45.0 °F 93% 29.95 in 8.0 mi Calm Calm - N/A   Overcast
11:06 PM 46.9 °F - 45.0 °F 93% 29.95 in 8.0 mi Calm Calm - N/A   Overcast
11:56 PM 46.9 °F - 45.0 °F 93% 29.96 in 5.0 mi Calm Calm - N/A   Overcast